• In Deutschland
  • Länderverzeichnis
  • Für 7 Tage
  • Wassertemperatur
  • Satellitenkarten
  • Wetterkarte
  • Widgets
  • user-avatar
    Anmelden

    Stündliche Wetter Armawir

    Heute, 18 November, Samstag

    Zeit Temperatur Niederschläge Wind Luftdruck Luftfeuchtigkeit
    00:00 +9°C° 0 mm 1 m/S 689 mmHg 44%
    01:00 +9°C° 0 mm 1 m/S 689 mmHg 45%
    02:00 +9°C° 0 mm 1 m/S 689 mmHg 46%
    03:00 +9°C° 0 mm 1 m/S 689 mmHg 46%
    04:00 +8°C° 0 mm 1 m/S 689 mmHg 47%
    05:00 +8°C° 0 mm 1 m/S 689 mmHg 48%
    06:00 +8°C° 0 mm 1 m/S 689 mmHg 49%
    07:00 +9°C° 0 mm 1 m/S 690 mmHg 44%
    08:00 +11°C° 0 mm 1 m/S 690 mmHg 40%
    09:00 +12°C° 0 mm 1 m/S 690 mmHg 36%
    10:00 +14°C° 0 mm 2 m/S 690 mmHg 34%
    11:00 +15°C° 0 mm 2 m/S 690 mmHg 32%
    12:00 +16°C° 0 mm 2 m/S 690 mmHg 29%
    13:00 +16°C° 0 mm 3 m/S 690 mmHg 29%
    14:00 +16°C° 0 mm 3 m/S 689 mmHg 29%
    15:00 +16°C° 0 mm 3 m/S 689 mmHg 28%
    16:00 +15°C° 0 mm 2 m/S 689 mmHg 32%
    17:00 +13°C° 0 mm 2 m/S 689 mmHg 36%
    18:00 +10°C° 0 mm 2 m/S 689 mmHg 39%
    19:00 +10°C° 0 mm 2 m/S 689 mmHg 40%
    20:00 +10°C° 0 mm 2 m/S 689 mmHg 41%
    21:00 +10°C° 0 mm 1 m/S 689 mmHg 41%
    22:00 +10°C° 0 mm 1 m/S 689 mmHg 42%
    23:00 +9°C° 0 mm 2 m/S 689 mmHg 43%

    Morgen, 19 November, Sonntag

    Zeit Temperatur Niederschläge Wind Luftdruck Luftfeuchtigkeit
    00:00 +9°C° 0 mm 2 m/S 689 mmHg 44%
    01:00 +9°C° 0 mm 2 m/S 689 mmHg 44%
    02:00 +8°C° 0 mm 2 m/S 689 mmHg 44%
    03:00 +8°C° 0 mm 2 m/S 688 mmHg 44%
    04:00 +8°C° 0 mm 2 m/S 688 mmHg 44%
    05:00 +8°C° 0 mm 2 m/S 688 mmHg 43%
    06:00 +8°C° 0 mm 2 m/S 688 mmHg 43%
    07:00 +9°C° 0 mm 2 m/S 688 mmHg 40%
    08:00 +12°C° 0 mm 2 m/S 688 mmHg 36%
    09:00 +13°C° 0 mm 2 m/S 689 mmHg 33%
    10:00 +14°C° 0,1 mm 2 m/S 689 mmHg 34%
    11:00 +14°C° 0,1 mm 2 m/S 688 mmHg 34%
    12:00 +14°C° 0,1 mm 2 m/S 688 mmHg 35%
    13:00 +14°C° 0,2 mm 2 m/S 688 mmHg 39%
    14:00 +14°C° 0,2 mm 2 m/S 687 mmHg 43%
    15:00 +14°C° 0,2 mm 2 m/S 687 mmHg 47%
    16:00 +13°C° 0,2 mm 2 m/S 687 mmHg 51%
    17:00 +12°C° 0,2 mm 2 m/S 687 mmHg 55%
    18:00 +10°C° 0,2 mm 2 m/S 687 mmHg 59%
    19:00 +10°C° 0,1 mm 2 m/S 687 mmHg 60%
    20:00 +9°C° 0,1 mm 2 m/S 687 mmHg 61%
    21:00 +9°C° 0,1 mm 2 m/S 687 mmHg 63%
    22:00 +9°C° 0 mm 2 m/S 687 mmHg 63%
    23:00 +8°C° 0 mm 2 m/S 687 mmHg 64%

    übermorgen, 20 November, Montag

    Zeit Temperatur Niederschläge Wind Luftdruck Luftfeuchtigkeit
    00:00 +8°C° 0 mm 2 m/S 687 mmHg 64%
    01:00 +8°C° 0 mm 2 m/S 687 mmHg 64%
    02:00 +8°C° 0 mm 2 m/S 687 mmHg 64%
    03:00 +8°C° 0 mm 2 m/S 687 mmHg 64%
    04:00 +8°C° 0 mm 2 m/S 687 mmHg 65%
    05:00 +7°C° 0 mm 2 m/S 687 mmHg 66%
    06:00 +7°C° 0 mm 2 m/S 687 mmHg 66%
    07:00 +8°C° 0 mm 2 m/S 687 mmHg 63%
    08:00 +9°C° 0 mm 2 m/S 687 mmHg 59%
    09:00 +12°C° 0 mm 2 m/S 687 mmHg 55%
    10:00 +12°C° 0 mm 3 m/S 687 mmHg 53%
    11:00 +13°C° 0 mm 3 m/S 686 mmHg 51%
    12:00 +13°C° 0 mm 3 m/S 686 mmHg 49%
    13:00 +14°C° 0,1 mm 3 m/S 685 mmHg 49%
    14:00 +14°C° 0,1 mm 3 m/S 685 mmHg 49%
    15:00 +14°C° 0,1 mm 3 m/S 684 mmHg 49%
    16:00 +13°C° 0,1 mm 3 m/S 684 mmHg 53%
    17:00 +12°C° 0,1 mm 2 m/S 684 mmHg 56%
    18:00 +10°C° 0,1 mm 2 m/S 684 mmHg 60%
    19:00 +10°C° 0,1 mm 2 m/S 684 mmHg 61%
    20:00 +10°C° 0,1 mm 2 m/S 684 mmHg 62%
    21:00 +9°C° 0,1 mm 2 m/S 684 mmHg 64%
    22:00 +9°C° 0,1 mm 2 m/S 684 mmHg 65%
    23:00 +9°C° 0,1 mm 2 m/S 683 mmHg 65%

    21 November, Dienstag

    Zeit Temperatur Niederschläge Wind Luftdruck Luftfeuchtigkeit
    00:00 +9°C° 0,1 mm 2 m/S 683 mmHg 66%
    01:00 +9°C° 0 mm 2 m/S 683 mmHg 67%
    02:00 +9°C° 0 mm 2 m/S 682 mmHg 68%
    03:00 +9°C° 0 mm 2 m/S 682 mmHg 69%
    04:00 +8°C° 0 mm 2 m/S 682 mmHg 70%
    05:00 +8°C° 0 mm 2 m/S 681 mmHg 70%
    06:00 +8°C° 0 mm 2 m/S 681 mmHg 71%
    07:00 +9°C° 0 mm 2 m/S 681 mmHg 67%
    08:00 +10°C° 0 mm 2 m/S 681 mmHg 63%
    09:00 +12°C° 0 mm 2 m/S 681 mmHg 60%
    10:00 +12°C° 0 mm 3 m/S 681 mmHg 58%
    11:00 +13°C° 0 mm 3 m/S 680 mmHg 56%
    12:00 +14°C° 0 mm 4 m/S 680 mmHg 54%
    13:00 +14°C° 0 mm 4 m/S 680 mmHg 55%
    14:00 +14°C° 0 mm 4 m/S 679 mmHg 56%
    15:00 +14°C° 0 mm 4 m/S 679 mmHg 57%
    16:00 +13°C° 0,1 mm 4 m/S 679 mmHg 63%
    17:00 +12°C° 0,1 mm 3 m/S 679 mmHg 68%
    18:00 +12°C° 0,1 mm 2 m/S 679 mmHg 74%
    19:00 +10°C° 0,1 mm 2 m/S 679 mmHg 75%
    20:00 +10°C° 0,1 mm 2 m/S 679 mmHg 76%
    21:00 +9°C° 0,1 mm 2 m/S 679 mmHg 78%
    22:00 +9°C° 0 mm 2 m/S 679 mmHg 78%
    23:00 +9°C° 0 mm 2 m/S 679 mmHg 78%

    22 November, Mittwoch

    Zeit Temperatur Niederschläge Wind Luftdruck Luftfeuchtigkeit
    00:00 +9°C° 0 mm 2 m/S 679 mmHg 79%
    01:00 +9°C° 0,1 mm 2 m/S 679 mmHg 78%
    02:00 +9°C° 0,1 mm 2 m/S 679 mmHg 77%
    03:00 +9°C° 0,1 mm 2 m/S 679 mmHg 76%
    04:00 +9°C° 0,3 mm 2 m/S 679 mmHg 77%
    05:00 +9°C° 0,3 mm 2 m/S 679 mmHg 77%
    06:00 +9°C° 0,3 mm 1 m/S 679 mmHg 78%
    07:00 +9°C° 1,3 mm 2 m/S 679 mmHg 77%
    08:00 +9°C° 1,3 mm 2 m/S 680 mmHg 75%
    09:00 +9°C° 1,3 mm 2 m/S 680 mmHg 74%
    10:00 +9°C° 1,9 mm 3 m/S 680 mmHg 76%
    11:00 +8°C° 1,9 mm 3 m/S 680 mmHg 78%
    12:00 +8°C° 1,9 mm 3 m/S 680 mmHg 80%
    13:00 +8°C° 0,6 mm 3 m/S 680 mmHg 77%
    14:00 +8°C° 0,6 mm 3 m/S 680 mmHg 74%
    15:00 +8°C° 0,6 mm 2 m/S 681 mmHg 70%
    16:00 +7°C° 0,2 mm 2 m/S 681 mmHg 72%
    17:00 +7°C° 0,2 mm 2 m/S 682 mmHg 74%
    18:00 +6°C° 0,2 mm 2 m/S 682 mmHg 76%
    19:00 +5°C° 0,1 mm 2 m/S 683 mmHg 76%
    20:00 +4°C° 0,1 mm 2 m/S 683 mmHg 76%
    21:00 +4°C° 0,1 mm 2 m/S 683 mmHg 77%
    22:00 +3°C° 0,1 mm 2 m/S 684 mmHg 76%
    23:00 +3°C° 0,1 mm 2 m/S 684 mmHg 75%

    23 November, Donnerstag

    Zeit Temperatur Niederschläge Wind Luftdruck Luftfeuchtigkeit
    00:00 +3°C° 0,1 mm 2 m/S 684 mmHg 74%
    01:00 +3°C° 0 mm 2 m/S 684 mmHg 73%
    02:00 +2°C° 0 mm 2 m/S 685 mmHg 72%
    03:00 +2°C° 0 mm 2 m/S 685 mmHg 71%
    04:00 +2°C° 0 mm 2 m/S 685 mmHg 71%
    05:00 +1°C° 0 mm 2 m/S 685 mmHg 72%
    06:00 +1°C° 0 mm 2 m/S 685 mmHg 72%
    07:00 +2°C° 0 mm 2 m/S 686 mmHg 69%
    08:00 +3°C° 0 mm 1 m/S 686 mmHg 66%
    09:00 +4°C° 0 mm 1 m/S 687 mmHg 64%
    10:00 +5°C° 0 mm 1 m/S 687 mmHg 61%
    11:00 +5°C° 0 mm 2 m/S 686 mmHg 58%
    12:00 +6°C° 0 mm 2 m/S 686 mmHg 55%
    13:00 +6°C° 0,1 mm 2 m/S 686 mmHg 55%
    14:00 +6°C° 0,1 mm 2 m/S 686 mmHg 54%
    15:00 +5°C° 0,1 mm 3 m/S 686 mmHg 54%
    16:00 +4°C° 0,1 mm 3 m/S 687 mmHg 57%
    17:00 +3°C° 0,1 mm 3 m/S 687 mmHg 60%
    18:00 +2°C° 0,1 mm 3 m/S 688 mmHg 63%
    19:00 +2°C° 0,1 mm 3 m/S 688 mmHg 64%
    20:00 +3°C° 0,1 mm 2 m/S 688 mmHg 65%
    21:00 +2°C° 0,1 mm 2 m/S 689 mmHg 66%
    22:00 +2°C° 0,1 mm 2 m/S 689 mmHg 67%
    23:00 +2°C° 0,1 mm 2 m/S 689 mmHg 68%
    Mehr zeigen